Powrót do katalogu

STARLINK-31357

AktywnyŁącznośćVLEO
NORAD 59502·PAYLOAD·🇺🇸 United States

Wystrzelony Apr 13, 2024 z Cape Canaveral Space Force Station

Loading…

Następne Przeloty (najbliższe 24 godziny)

TLE

ŚwieżeSource: CelesTrak SupGP

Epoka: Sep 14, 2026, 22:42 UTC

1 59502C 24071U   26257.94631944 -.00014981  00000+0 -54256-3 0  2573
2 59502  43.0043 351.2681 0001622 266.5220 174.8878 15.27587597    17

Śledź STARLINK-31357 w czasie rzeczywistym z AllMySat

Download on the App Store